THORAD DELTA 1 DEB, 8308

Orbit data source: Space-Track

THORAD DELTA 1 DEB, 8308 is space debris in SSO originally from a launch on Fri, 15 Nov 1974 UTC launched from the Air Force Western Test Range (AFWTR). Debris objects in space refer to the collection of defunct objects orbiting the Earth. Examples of debris include non-operational satellites, rocket bodies, and fragments generated from explosions, collisions, or faulty payload assembly.

Loading next visibility...
Identifier
8308, 1974-089BR
Orbit
SSO
Country
Flag of USUS
Related business
Manufacturer
Unknown
Mission
Spacecraft
Bus & Motor
Unknown
Mass
Unknown
Launch date (UTC)
1974-11-15 (51 years ago)
Launch vehicle
Unknown
Launch site
Air Force Western Test Range (AFWTR)
Object type
Payload
Rocket body
Debris
Shape & HBR
Unknown shape, 0.3 m
Radar Cross Section
Medium (>0.1 m² and <1 m²)

Expand to show TLE details & history
Last TLE update: 10 hours ago

TLE from 10 hours ago
0 THORAD DELTA 1 DEB
1  8308U 74089BR  26048.71770262  .00000024  00000-0  46281-3 0  9999
2  8308 101.5116  92.2519 0061500 279.8286 206.3495 12.45583874330178
Epoch: 2026-02-17T17:13Z
TLE epoch observation values (Epoch: 2026-02-17T17:13:29.506Z)
Latitude
52.66129°
Longitude
-118.40781°
Altitude
1,534.771 km
Speed
7.084 km/s
True Right ascension
19h 10m 38s
True Declination
52° 30' 42"
Sunlit
Object was in daylight at epoch
Visualization orbit readout
Latitude
Unknown
Longitude
Unknown
Altitude
Unknown
Speed
Unknown
Apparent Right ascension
Unknown
Apparent Declination
Unknown
Sunlit
N/A
Visualization observer readout
Local Sidereal Time
05:58:00
Azimuth
Unknown
Elevation
Unknown
Doppler factor
Unknown
Orbital elements
Apogee altitude
1,528.891 km
Perigee altitude
1,432.229 km
Semi-major axis
7,858.697 km
Eccentricity
0.00615
Inclination
101.5116°
RAAN
92.2519°
Arg. of periapsis
279.8286°
True anomaly
206.03885°
Mean anomaly
206.3495°
Eccentric anomaly
206.19396°
Mean motion
3.11543 °/min
Orbital period
115.55 mins
BSTAR
0.00046281
Loading maneuver chart data...
Computing Atmospheric mass density...

Documentation

Showing up to 5 results
|